Back to catalog

FALCON 9 R/B

AliveVLEO
NORAD 54698·ROCKET BODY·🇺🇸 United States

Launched Dec 11, 2022 from Cape Canaveral Space Force Station

Loading…

Next Passes (next 24 hours)

TLE

StaleSource: Space-Track

Epoch: Dec 11, 2022, 07:46 UTC

1 54698U 22168C   22345.32368031  .00002049 -64822-5  00000-0 0  9996
2 54698  29.0000  41.2312 0098300  59.8200  27.0300 16.15592824    07

Track FALCON 9 R/B in real time with AllMySat

Download on the App Store